Hourly Weather Barlinek

Today, 27 September, Sunday

Time Temperature Precipitation Wind Pressure Humidity
00:00 +10°C° 0 mm 2 mps 743 mmHg 88%
01:00 +9°C° 0 mm 2 mps 743 mmHg 89%
02:00 +9°C° 0.1 mm 2 mps 743 mmHg 89%
03:00 +9°C° 0.1 mm 2 mps 743 mmHg 89%
04:00 +10°C° 0.1 mm 1 mps 744 mmHg 89%
05:00 +9°C° 0.5 mm 2 mps 744 mmHg 90%
06:00 +8°C° 0.5 mm 2 mps 744 mmHg 91%
07:00 +8°C° 0 mm 2 mps 744 mmHg 89%
08:00 +8°C° 1.5 mm 2 mps 744 mmHg 91%
09:00 +8°C° 1.5 mm 3 mps 745 mmHg 92%
10:00 +8°C° 1.5 mm 3 mps 745 mmHg 94%
11:00 +8°C° 0.9 mm 3 mps 745 mmHg 93%
12:00 +8°C° 0.9 mm 3 mps 745 mmHg 93%
13:00 +7°C° 0.9 mm 4 mps 745 mmHg 93%
14:00 +7°C° 1 mm 4 mps 746 mmHg 93%
15:00 +7°C° 1 mm 4 mps 746 mmHg 93%
16:00 +8°C° 1 mm 4 mps 746 mmHg 93%
17:00 +9°C° 0.4 mm 3 mps 747 mmHg 93%
18:00 +9°C° 0.4 mm 3 mps 747 mmHg 93%
19:00 +9°C° 0.4 mm 2 mps 747 mmHg 93%
20:00 +9°C° 0.2 mm 2 mps 748 mmHg 93%
21:00 +9°C° 0.2 mm 3 mps 749 mmHg 93%
22:00 +9°C° 0.2 mm 3 mps 749 mmHg 93%
23:00 +9°C° 0.1 mm 3 mps 750 mmHg 92%

Tomorrow, 28 September, Monday

Time Temperature Precipitation Wind Pressure Humidity
00:00 +9°C° 0.1 mm 2 mps 750 mmHg 91%
01:00 +9°C° 0.1 mm 2 mps 750 mmHg 90%
02:00 +9°C° 0 mm 2 mps 751 mmHg 91%
03:00 +8°C° 0 mm 2 mps 751 mmHg 91%
04:00 +8°C° 0 mm 2 mps 751 mmHg 92%
05:00 +8°C° 0 mm 2 mps 752 mmHg 91%
06:00 +8°C° 0 mm 2 mps 752 mmHg 90%
07:00 +8°C° 0 mm 2 mps 752 mmHg 89%
08:00 +10°C° 0 mm 3 mps 753 mmHg 82%
09:00 +12°C° 0 mm 3 mps 753 mmHg 76%
10:00 +14°C° 0 mm 3 mps 753 mmHg 69%
11:00 +16°C° 0 mm 3 mps 753 mmHg 64%
12:00 +17°C° 0 mm 3 mps 753 mmHg 59%
13:00 +18°C° 0 mm 4 mps 753 mmHg 54%
14:00 +18°C° 0 mm 3 mps 753 mmHg 56%
15:00 +17°C° 0 mm 3 mps 753 mmHg 58%
16:00 +17°C° 0 mm 2 mps 753 mmHg 60%
17:00 +16°C° 0 mm 2 mps 753 mmHg 62%
18:00 +16°C° 0 mm 2 mps 753 mmHg 64%
19:00 +15°C° 0 mm 2 mps 754 mmHg 67%
20:00 +14°C° 0 mm 2 mps 754 mmHg 68%
21:00 +14°C° 0 mm 1 mps 754 mmHg 70%
22:00 +14°C° 0 mm 1 mps 754 mmHg 72%
23:00 +14°C° 0 mm 1 mps 754 mmHg 73%

Day after tomorrow, 29 September, Tuesday

Time Temperature Precipitation Wind Pressure Humidity
00:00 +14°C° 0 mm 1 mps 754 mmHg 74%
01:00 +13°C° 0 mm 2 mps 754 mmHg 75%
02:00 +13°C° 0 mm 2 mps 754 mmHg 76%
03:00 +13°C° 0 mm 2 mps 754 mmHg 77%
04:00 +13°C° 0 mm 1 mps 754 mmHg 78%
05:00 +13°C° 0 mm 1 mps 754 mmHg 78%
06:00 +13°C° 0 mm 1 mps 754 mmHg 78%
07:00 +13°C° 0 mm 1 mps 755 mmHg 78%
08:00 +14°C° 0 mm 1 mps 755 mmHg 75%
09:00 +15°C° 0 mm 1 mps 755 mmHg 73%
10:00 +14°C° 0 mm 0 mps 755 mmHg 70%
11:00 +16°C° 0 mm 0 mps 755 mmHg 65%
12:00 +17°C° 0 mm 0 mps 755 mmHg 60%
13:00 +18°C° 0 mm 0 mps 755 mmHg 55%
14:00 +20°C° 0 mm 1 mps 755 mmHg 55%
15:00 +20°C° 0 mm 1 mps 755 mmHg 55%
16:00 +20°C° 0 mm 1 mps 755 mmHg 55%
17:00 +18°C° 0 mm 1 mps 755 mmHg 62%
18:00 +16°C° 0 mm 1 mps 755 mmHg 68%
19:00 +14°C° 0 mm 1 mps 755 mmHg 74%
20:00 +13°C° 0 mm 1 mps 755 mmHg 76%
21:00 +13°C° 0 mm 1 mps 756 mmHg 77%
22:00 +13°C° 0 mm 1 mps 756 mmHg 78%
23:00 +12°C° 0 mm 1 mps 755 mmHg 78%

30 September, Wednesday

Time Temperature Precipitation Wind Pressure Humidity
00:00 +12°C° 0 mm 1 mps 755 mmHg 79%
01:00 +11°C° 0 mm 1 mps 755 mmHg 79%
02:00 +10°C° 0 mm 0 mps 755 mmHg 81%
03:00 +10°C° 0 mm 0 mps 755 mmHg 82%
04:00 +9°C° 0 mm 0 mps 755 mmHg 83%
05:00 +10°C° 0 mm 0 mps 755 mmHg 83%
06:00 +10°C° 0 mm 0 mps 755 mmHg 83%
07:00 +11°C° 0 mm 1 mps 755 mmHg 82%
08:00 +13°C° 0 mm 1 mps 755 mmHg 76%
09:00 +15°C° 0 mm 1 mps 755 mmHg 69%
10:00 +18°C° 0 mm 1 mps 755 mmHg 62%
11:00 +19°C° 0 mm 1 mps 755 mmHg 58%
12:00 +18°C° 0 mm 0 mps 755 mmHg 54%
13:00 +19°C° 0 mm 0 mps 754 mmHg 50%
14:00 +19°C° 0 mm 0 mps 754 mmHg 50%
15:00 +18°C° 0 mm 0 mps 754 mmHg 51%
16:00 +18°C° 0 mm 0 mps 754 mmHg 52%
17:00 +19°C° 0 mm 1 mps 754 mmHg 56%
18:00 +16°C° 0 mm 1 mps 754 mmHg 60%
19:00 +14°C° 0 mm 1 mps 754 mmHg 64%
20:00 +14°C° 0 mm 1 mps 754 mmHg 66%
21:00 +13°C° 0 mm 1 mps 754 mmHg 68%
22:00 +13°C° 0 mm 1 mps 754 mmHg 71%
23:00 +13°C° 0 mm 1 mps 753 mmHg 75%

1 October, Thursday

Time Temperature Precipitation Wind Pressure Humidity
00:00 +12°C° 0 mm 1 mps 753 mmHg 79%
01:00 +12°C° 0 mm 1 mps 753 mmHg 83%
02:00 +12°C° 0 mm 1 mps 752 mmHg 86%
03:00 +12°C° 0 mm 1 mps 752 mmHg 88%
04:00 +12°C° 0 mm 1 mps 752 mmHg 90%
05:00 +12°C° 0 mm 1 mps 751 mmHg 90%
06:00 +12°C° 0 mm 1 mps 751 mmHg 90%
07:00 +12°C° 0 mm 2 mps 751 mmHg 90%
08:00 +14°C° 0 mm 2 mps 750 mmHg 82%
09:00 +16°C° 0 mm 2 mps 750 mmHg 75%
10:00 +17°C° 0 mm 3 mps 750 mmHg 67%
11:00 +18°C° 0 mm 3 mps 749 mmHg 64%
12:00 +19°C° 0 mm 3 mps 748 mmHg 61%
13:00 +20°C° 0 mm 3 mps 748 mmHg 57%
14:00 +20°C° 0 mm 3 mps 747 mmHg 59%
15:00 +20°C° 0 mm 3 mps 747 mmHg 61%
16:00 +20°C° 0 mm 3 mps 747 mmHg 62%
17:00 +18°C° 0 mm 3 mps 746 mmHg 68%
18:00 +17°C° 0 mm 3 mps 746 mmHg 74%
19:00 +14°C° 0 mm 4 mps 746 mmHg 79%
20:00 +14°C° 0 mm 4 mps 746 mmHg 81%
21:00 +13°C° 0 mm 4 mps 746 mmHg 82%
22:00 +13°C° 0 mm 4 mps 746 mmHg 84%
23:00 +13°C° 0 mm 4 mps 745 mmHg 85%

2 October, Friday

Time Temperature Precipitation Wind Pressure Humidity
00:00 +12°C° 0 mm 4 mps 745 mmHg 86%
01:00 +12°C° 0 mm 4 mps 745 mmHg 87%
02:00 +12°C° 0 mm 4 mps 745 mmHg 88%
03:00 +12°C° 0 mm 4 mps 745 mmHg 89%
04:00 +12°C° 0 mm 4 mps 744 mmHg 90%
05:00 +12°C° 0 mm 4 mps 745 mmHg 88%
06:00 +12°C° 0 mm 4 mps 745 mmHg 86%
07:00 +13°C° 0 mm 4 mps 745 mmHg 84%
08:00 +13°C° 0.2 mm 4 mps 745 mmHg 85%
09:00 +13°C° 0.2 mm 4 mps 745 mmHg 86%
10:00 +13°C° 0.2 mm 3 mps 746 mmHg 88%
11:00 +13°C° 0.5 mm 3 mps 746 mmHg 86%
12:00 +14°C° 0.5 mm 3 mps 746 mmHg 84%
13:00 +16°C° 0.5 mm 3 mps 746 mmHg 83%
14:00 +16°C° 0 mm 3 mps 746 mmHg 81%
15:00 +17°C° 0 mm 2 mps 746 mmHg 78%
16:00 +17°C° 0 mm 2 mps 746 mmHg 76%
17:00 +16°C° 0 mm 2 mps 746 mmHg 78%
18:00 +16°C° 0 mm 2 mps 746 mmHg 80%
19:00 +15°C° 0 mm 2 mps 746 mmHg 82%
20:00 +14°C° 0 mm 3 mps 746 mmHg 83%
21:00 +13°C° 0 mm 3 mps 745 mmHg 84%
22:00 +13°C° 0 mm 3 mps 745 mmHg 85%
23:00 +13°C° 0 mm 3 mps 745 mmHg 86%
Show more